Date String (YYYY-MM-DD hh:mm:ss) UTC,Instrument flags,absolute air pressure of the measurement (hPa),sample flow rate (lpm),inlet stack bypass flow (lpm),air temperature of the measurement (°C),ambient temperature measured by the external sensor (°C),aerosol sample conditioner tube jacket temperature (°C),OPC LED temperature (°C),internal box temperature (°C),relative humidity of the measurement (%),span deviation,mass concentration of particles derived from Lorenz-Mie calculation of OPC scattering (μg/m³),mass concentration of particles derived from Lorenz-Mie calculation of OPC scattering (μg/m³),mass concentration of particles derived from Lorenz-Mie calculation of OPC scattering (μg/m³)
DateTimeUTC,F1_M11,P_M11,Q1_M11,Q2_M11,T1_M11,T2_M11,T3_M11,T4_M11,T5_M11,U1_M11,ZSPAN_M11,X0_M11,X2_M11,X1_M11
2023-12-29 19:00:00,SystemResetWarning,0833.9,5.00,000.00,022.4,021.9,000.0,030.5,023.9,8.4,0000.0,0001.71,0000.48,0000.24
2023-12-29 19:01:00,SystemResetWarning,0833.9,5.01,000.00,022.4,021.9,000.0,030.5,023.9,8.3,0000.0,0003.11,0000.48,0000.24
2023-12-29 19:02:00,SystemResetWarning,0833.8,5.01,000.00,022.4,021.9,000.0,030.6,023.9,8.2,0000.0,0003.11,0000.48,0000.23
2023-12-29 19:03:00,SystemResetWarning,0833.8,5.00,000.00,022.4,021.9,000.0,030.6,023.9,8.3,0000.0,0003.08,0000.46,0000.23
2023-12-29 19:04:00,SystemResetWarning,0833.8,4.99,000.00,022.4,021.9,000.0,030.6,023.9,8.2,0000.0,0003.12,0000.47,0000.24
2023-12-29 19:05:00,SystemResetWarning,0833.8,4.99,000.00,022.5,021.9,000.0,030.6,023.9,8.3,0000.0,0003.21,0000.51,0000.25
2023-12-29 19:06:00,SystemResetWarning,0833.8,4.99,000.00,022.5,022.0,000.0,030.6,024.0,8.4,0000.0,0003.25,0000.52,0000.26
2023-12-29 19:07:00,SystemResetWarning,0833.8,5.00,000.00,022.5,022.0,000.0,030.6,024.0,8.4,0000.0,0004.19,0000.51,0000.27
2023-12-29 19:08:00,SystemResetWarning,0833.8,5.00,000.00,022.5,022.0,000.0,030.7,024.0,8.2,0000.0,0004.85,0000.52,0000.27
2023-12-29 19:09:00,SystemResetWarning,0833.8,5.01,000.00,022.5,022.0,000.0,030.7,024.0,8.3,0000.0,0004.88,0000.54,0000.28
2023-12-29 19:10:00,SystemResetWarning,0833.7,5.01,000.00,022.5,022.0,000.0,030.7,024.0,8.4,0000.0,0004.73,0000.53,0000.28
2023-12-29 19:11:00,SystemResetWarning,0833.7,5.00,000.00,022.6,022.0,000.0,030.7,024.0,8.4,0000.0,0003.95,0000.50,0000.28
2023-12-29 19:12:00,SystemResetWarning,0833.8,5.00,000.00,022.6,022.0,000.0,030.7,024.0,8.3,0000.0,0003.12,0000.51,0000.29
2023-12-29 19:13:00,SystemResetWarning,0833.8,5.00,000.00,022.6,022.0,000.0,030.7,024.1,8.4,0000.0,0003.92,0000.50,0000.29
2023-12-29 19:14:00,SystemResetWarning,0833.8,5.00,000.00,022.6,022.1,000.0,030.7,024.1,8.3,0000.0,0003.87,0000.49,0000.29
2023-12-29 19:15:00,SystemResetWarning,0833.7,5.00,000.00,022.6,022.1,000.0,030.8,024.1,8.2,0000.0,0003.91,0000.50,0000.28
2023-12-29 19:16:00,SystemResetWarning,0833.7,5.00,000.00,022.6,022.1,000.0,030.8,024.1,8.2,0000.0,0003.97,0000.48,0000.27
2023-12-29 19:17:00,SystemResetWarning,0833.6,4.99,000.00,022.7,022.1,000.0,030.8,024.1,8.2,0000.0,0004.01,0000.48,0000.26
2023-12-29 19:18:00,SystemResetWarning,0833.7,5.00,000.00,022.7,022.1,000.0,030.8,024.1,8.2,0000.0,0003.06,0000.48,0000.26
2023-12-29 19:19:00,SystemResetWarning,0833.7,5.01,000.00,022.7,022.1,000.0,030.8,024.2,8.3,0000.0,0002.38,0000.48,0000.25
2023-12-29 19:20:00,SystemResetWarning,0833.7,5.00,000.00,022.7,022.1,000.0,030.8,024.2,8.3,0000.0,0002.37,0000.47,0000.25
2023-12-29 19:21:00,SystemResetWarning,0833.7,4.99,000.00,022.7,022.2,000.0,030.9,024.2,8.5,0000.0,0002.39,0000.48,0000.25
2023-12-29 19:22:00,SystemResetWarning,0833.7,5.00,000.00,022.7,022.2,000.0,030.9,024.2,8.4,0000.0,0002.71,0000.48,0000.25
2023-12-29 19:23:00,SystemResetWarning,0833.6,5.00,000.00,022.7,022.2,000.0,030.9,024.2,8.3,0000.0,0002.28,0000.46,0000.24
2023-12-29 19:24:00,SystemResetWarning,0833.6,5.00,000.00,022.8,022.2,000.0,030.9,024.2,8.4,0000.0,0001.50,0000.49,0000.25
2023-12-29 19:25:00,SystemResetWarning,0833.6,5.00,000.00,022.8,022.2,000.0,030.9,024.3,8.2,0000.0,0001.69,0000.52,0000.25
2023-12-29 19:26:00,SystemResetWarning,0833.6,5.00,000.00,022.8,022.2,000.0,030.9,024.3,8.3,0000.0,0001.83,0000.55,0000.26
2023-12-29 19:27:00,SystemResetWarning,0833.5,5.01,000.00,022.8,022.3,000.0,030.9,024.3,8.1,0000.0,0002.00,0000.59,0000.27
2023-12-29 19:28:00,SystemResetWarning,0833.4,5.01,000.00,022.8,022.3,000.0,031.0,024.3,8.1,0000.0,0002.00,0000.59,0000.27
2023-12-29 19:29:00,SystemResetWarning,0833.4,5.00,000.00,022.8,022.3,000.0,031.0,024.3,8.3,0000.0,0002.09,0000.60,0000.28
2023-12-29 19:30:00,SystemResetWarning,0833.4,4.99,000.00,022.9,022.3,000.0,031.0,024.3,8.4,0000.0,0002.35,0000.64,0000.28
2023-12-29 19:31:00,SystemResetWarning,0833.4,4.99,000.00,022.9,022.3,000.0,031.0,024.4,8.2,0000.0,0002.59,0000.67,0000.30
2023-12-29 19:32:00,SystemResetWarning,0833.5,5.02,000.00,022.9,022.3,000.0,031.0,024.4,8.2,0000.0,0004.03,0000.68,0000.30
2023-12-29 19:33:00,SystemResetWarning,0833.4,5.01,000.00,022.9,022.4,000.0,031.0,024.4,8.2,0000.0,0005.01,0000.72,0000.31
2023-12-29 19:34:00,SystemResetWarning,0833.4,5.00,000.00,022.9,022.4,000.0,031.1,024.4,8.1,0000.0,0005.41,0000.76,0000.32
2023-12-29 19:35:00,SystemResetWarning,0833.4,4.99,000.00,022.9,022.4,000.0,031.1,024.4,8.1,0000.0,0005.41,0000.77,0000.32
2023-12-29 19:36:00,SystemResetWarning,0833.4,4.99,000.00,022.9,022.4,000.0,031.1,024.4,8.1,0000.0,0005.22,0000.73,0000.32
2023-12-29 19:37:00,SystemResetWarning,0833.4,4.99,000.00,023.0,022.4,000.0,031.1,024.5,8.1,0000.0,0005.07,0000.71,0000.32
2023-12-29 19:38:00,SystemResetWarning,0833.4,5.01,000.00,023.0,022.4,000.0,031.1,024.4,8.1,0000.0,0004.74,0000.66,0000.32
2023-12-29 19:39:00,SystemResetWarning,0833.3,5.01,000.00,023.0,022.4,000.0,031.1,024.5,8.0,0000.0,0004.73,0000.66,0000.32
2023-12-29 19:40:00,SystemResetWarning,0833.3,5.01,000.00,023.0,022.5,000.0,031.1,024.5,8.0,0000.0,0004.81,0000.68,0000.31
2023-12-29 19:41:00,SystemResetWarning,0833.2,4.99,000.00,023.0,022.5,000.0,031.2,024.5,8.0,0000.0,0004.69,0000.69,0000.31
2023-12-29 19:42:00,SystemResetWarning,0833.3,5.00,000.00,023.0,022.5,000.0,031.2,024.5,8.0,0000.0,0004.49,0000.66,0000.31
2023-12-29 19:43:00,SystemResetWarning,0833.3,5.00,000.00,023.0,022.5,000.0,031.2,024.5,7.9,0000.0,0003.34,0000.68,0000.32
2023-12-29 19:44:00,SystemResetWarning,0833.2,5.00,000.00,023.1,022.5,000.0,031.2,024.5,8.0,0000.0,0002.18,0000.66,0000.32
2023-12-29 19:45:00,SystemResetWarning,0833.2,5.00,000.00,023.1,022.5,000.0,031.2,024.5,7.9,0000.0,0001.61,0000.69,0000.32
2023-12-29 19:46:00,SystemResetWarning,0833.2,4.99,000.00,023.1,022.5,000.0,031.2,024.5,7.8,0000.0,0003.66,0000.68,0000.32
2023-12-29 19:47:00,SystemResetWarning,0833.2,5.00,000.00,023.1,022.6,000.0,031.2,024.6,7.8,0000.0,0005.32,0000.72,0000.32
2023-12-29 19:48:00,SystemResetWarning,0833.2,5.01,000.00,023.1,022.6,000.0,031.3,024.6,7.8,0000.0,0005.26,0000.70,0000.33
2023-12-29 19:49:00,SystemResetWarning,0833.2,5.00,000.00,023.1,022.6,000.0,031.3,024.6,7.8,0000.0,0005.26,0000.70,0000.33
2023-12-29 19:50:00,SystemResetWarning,0833.2,5.00,000.00,023.2,022.6,000.0,031.3,024.6,7.9,0000.0,0005.21,0000.68,0000.33
2023-12-29 19:51:00,SystemResetWarning,0833.1,5.00,000.00,023.2,022.6,000.0,031.3,024.6,7.8,0000.0,0005.18,0000.69,0000.33
2023-12-29 19:52:00,SystemResetWarning,0833.0,5.01,000.00,023.2,022.6,000.0,031.3,024.6,7.8,0000.0,0005.02,0000.65,0000.34
2023-12-29 19:53:00,SystemResetWarning,0833.3,5.00,000.00,023.2,022.6,000.0,031.3,024.6,7.8,0000.0,0004.96,0000.63,0000.33
2023-12-29 19:54:00,SystemResetWarning,0833.1,4.99,000.00,023.2,022.6,000.0,031.3,024.6,7.8,0000.0,0005.19,0000.62,0000.32
2023-12-29 19:55:00,SystemResetWarning,0833.2,5.00,000.00,023.2,022.7,000.0,031.4,024.7,7.8,0000.0,0005.58,0000.69,0000.33
2023-12-29 19:56:00,SystemResetWarning,0833.0,5.01,000.00,023.2,022.7,000.0,031.4,024.7,7.8,0000.0,0005.51,0000.65,0000.32
2023-12-29 19:57:00,SystemResetWarning,0833.3,5.01,000.00,023.2,022.7,000.0,031.4,024.7,7.8,0000.0,0004.47,0000.62,0000.31
2023-12-29 19:58:00,SystemResetWarning,0832.9,5.00,000.00,023.3,022.7,000.0,031.4,024.7,7.9,0000.0,0001.96,0000.62,0000.31
2023-12-29 19:59:00,SystemResetWarning,0833.1,4.99,000.00,023.3,022.7,000.0,031.4,024.7,8.1,0000.0,0002.00,0000.62,0000.32
